Weather History for Dayton Wright, OH

Change the Weather History Date:

Monday, December 3, 2012

  Actual Average (KFFO) Record (KFFO)
Temperature  
Mean Temperature 62 °F -  
Max Temperature 68 °F 44 °F 67 °F (2012)
Min Temperature 57 °F 29 °F 14 °F (2002)
Degree Days  
Heating Degree Days 2    
Growing Degree Days 12 (Base 50)    
Moisture  
Dew Point 57 °F    
Average Humidity 90    
Maximum Humidity 100    
Minimum Humidity 70    
Precipitation  
Precipitation 0.01 in - - ()
Sea Level Pressure  
Sea Level Pressure 30.11 in    
Wind  
Wind Speed 7 mph (SSW)    
Max Wind Speed 13 mph    
Max Gust Speed -    
Visibility 7 miles    
Events Rain    
Averages and records for this station are not official NWS values.
T = Trace of Precipitation, MM = Missing Value Source: NWS Daily Summary

Daily Weather History Graph

Daily Weather History Graph

Search for Another Location

Airport:

Trip Planner

Search our weather history database for the weather conditions in past years. The results will help you decide how hot, cold, wet, or windy it might be!

Date:

Astronomy

Dec. 03, 2012 Rise Set
Actual Time 7:40 AM EST 5:12 PM EST
Civil Twilight 7:10 AM EST 5:42 PM EST
Nautical Twilight 6:37 AM EST 6:16 PM EST
Astronomical Twilight 6:04 AM EST 6:48 PM EST
Moon 9:58 PM EST (12/3) 11:04 AM EST (12/3)
Length of Visible Light 10h 31m
Length of Day
9h 32m
Waning Gibbous, 78% of the Moon is Illuminated
Dec 3
Waning Gibbous
Dec 6
Last Quarter
Dec 13
New
Dec 20
First Quarter
Dec 28
Full

Hourly Weather History & Observations

Time (EST) Temp. Dew Point Humidity Pressure Visibility Wind Dir Wind Speed Gust Speed Precip Events Conditions
12:01 AM 57.2 °F 57.2 °F 100% 30.13 in 0.8 mi SSW 4.6 mph - N/A   Overcast
12:26 AM 57.2 °F 57.2 °F 100% 30.13 in 1.2 mi SSW 4.6 mph - N/A   Overcast
12:53 AM 57.9 °F 57.9 °F 100% 30.13 in 1.2 mi SSW 4.6 mph - N/A   Overcast
1:53 AM 57.9 °F 57.9 °F 100% 30.13 in 1.0 mi SSW 4.6 mph - 0.00 in Rain Light Rain
2:11 AM 57.2 °F 57.2 °F 100% 30.13 in 0.8 mi SSW 5.8 mph - 0.01 in   Overcast
2:34 AM 57.2 °F 57.2 °F 100% 30.13 in 1.2 mi SSW 8.1 mph - 0.01 in   Overcast
2:53 AM 57.9 °F 57.9 °F 100% 30.13 in 1.2 mi SSW 5.8 mph - 0.01 in   Overcast
3:31 AM 57.2 °F 57.2 °F 100% 30.13 in 1.8 mi South 5.8 mph - N/A   Overcast
3:40 AM 57.2 °F 57.2 °F 100% 30.13 in 2.5 mi South 5.8 mph - N/A   Overcast
3:53 AM 57.0 °F 57.0 °F 100% 30.13 in 2.5 mi South 5.8 mph - N/A   Overcast
4:03 AM 57.2 °F 57.2 °F 100% 30.13 in 3.0 mi South 5.8 mph - N/A   Overcast
4:53 AM 57.0 °F 57.0 °F 100% 30.12 in 4.0 mi South 5.8 mph - N/A   Overcast
5:14 AM 57.2 °F 57.2 °F 100% 30.13 in 4.0 mi South 5.8 mph - N/A   Overcast
5:40 AM 57.2 °F 57.2 °F 100% 30.13 in 5.0 mi South 6.9 mph - N/A   Overcast
5:53 AM 57.0 °F 57.0 °F 100% 30.13 in 5.0 mi South 8.1 mph - N/A   Overcast
6:07 AM 57.2 °F 57.2 °F 100% 30.14 in 6.0 mi South 6.9 mph - N/A   Overcast
6:53 AM 57.9 °F 57.0 °F 97% 30.14 in 7.0 mi South 8.1 mph - N/A   Overcast
7:53 AM 57.9 °F 57.0 °F 97% 30.14 in 9.0 mi South 8.1 mph - N/A   Overcast
8:53 AM 57.9 °F 57.0 °F 97% 30.14 in 10.0 mi South 9.2 mph - N/A   Overcast
9:53 AM 59.0 °F 57.0 °F 93% 30.14 in 10.0 mi SSW 9.2 mph - N/A   Overcast
10:53 AM 61.0 °F 57.0 °F 87% 30.14 in 10.0 mi SSW 9.2 mph - N/A   Overcast
11:50 AM 62.6 °F 57.2 °F 82% 30.13 in 10.0 mi SW 10.4 mph - N/A   Overcast
11:53 AM 62.1 °F 57.0 °F 84% 30.12 in 10.0 mi SSW 9.2 mph - N/A   Overcast
12:23 PM 62.6 °F 57.2 °F 82% 30.11 in 10.0 mi South 11.5 mph - N/A   Overcast
12:53 PM 64.0 °F 57.9 °F 80% 30.10 in 10.0 mi South 8.1 mph - N/A   Scattered Clouds
1:53 PM 66.9 °F 57.9 °F 73% 30.07 in 10.0 mi SW 9.2 mph - N/A   Mostly Cloudy
2:20 PM 66.2 °F 57.2 °F 73% 30.07 in 10.0 mi SSW 12.7 mph - N/A   Scattered Clouds
2:53 PM 68.0 °F 57.9 °F 70% 30.06 in 10.0 mi SW 10.4 mph - N/A   Partly Cloudy
3:53 PM 66.9 °F 57.9 °F 73% 30.06 in 10.0 mi SSW 8.1 mph - N/A   Scattered Clouds
4:53 PM 64.9 °F 57.9 °F 78% 30.06 in 10.0 mi South 8.1 mph - N/A   Clear
5:53 PM 63.0 °F 55.9 °F 78% 30.07 in 10.0 mi South 8.1 mph - N/A   Clear
6:53 PM 61.0 °F 55.0 °F 81% 30.08 in 10.0 mi South 6.9 mph - N/A   Clear
7:53 PM 61.0 °F 55.0 °F 81% 30.07 in 10.0 mi South 10.4 mph - N/A   Clear
8:53 PM 61.0 °F 55.0 °F 81% 30.07 in 10.0 mi South 10.4 mph - N/A   Clear
9:53 PM 60.1 °F 54.0 °F 80% 30.07 in 10.0 mi South 10.4 mph - N/A   Clear
10:53 PM 61.0 °F 53.1 °F 75% 30.07 in 10.0 mi SSW 8.1 mph - N/A   Clear
11:53 PM 62.1 °F 52.0 °F 70% 30.08 in 10.0 mi SSW 10.4 mph - N/A   Mostly Cloudy